User: anonymous   Login
Location: Unspecified
(0.0000°N, 0.0000°E)
Time: 06:51:36
(UTC+00:00)
Language:

AIST 2D - Orbit

View from above orbital plane
View from above orbital plane
View from above satellite
View from above satellite

Ground track
Ground track

The orbit data is extracted from the following two-line orbital elements,

1 41465U 16026B   17087.75490274 +.00003133 +00000-0 +10726-3 0  9995
2 41465 097.2567 352.5136 0013006 140.3643 304.6429 15.30883920051153
Epoch (UTC): 28 March 2017 18:07:03
Eccentricity: 0.0013006
inclination: 97.2567°
perigee height: 464 km
apogee height: 482 km
right ascension of ascending node: 352.5136°
argument of perigee: 140.3643°
revolutions per day: 15.30883920
mean anomaly at epoch: 304.6429°
orbit number at epoch: 5115

The dashed part of the orbit path shows where the satellite is in the earth's shadow,  

DLR